Hourly Data Report for October 17, 2019

All times are specified in Local Standard Time (LST). Add 1 hour to adjust for Daylight Saving Time where and when it is observed.

ABBOTSFORD A
BRITISH COLUMBIA
Current Station Operator: NAVCAN

49°01'31.000" N
122°21'36.000" W
59.10 m
1100031
71108
YXX

Download Data

Hourly Data (October 2019)
Hourly Data Report for October 17, 2019
TIME Temp Definition
°C
Dew Point Definition
°C
Rel Hum Definition
%
Wind Dir Definition
10's deg

Wind Spd Definition
km/h
Visibility Definition
km
Stn Press Definition
kPa
Hmdx Definition


Wind Chill Definition


Weather Definition


00:00 9.2 8.7 97 34 6 24.1 99.74     LegendNANA
01:00 8.6 8.1 97 4 9 24.1 99.74     Mostly Cloudy
02:00 8.1 7.7 97 2 9 24.1 99.73     LegendNANA
03:00 8.7 8.3 97 34 6 20.9 99.69     LegendNANA
04:00 8.4 8.1 98 33 5 20.9 99.65     Cloudy
05:00 8.4 8.0 98 36 7 24.1 99.63     LegendNANA
06:00 10.1 7.7 85 14 5 32.2 99.57     LegendNANA
07:00 11.4 7.4 76 18 23 32.2 99.52     Mostly Cloudy
08:00 11.3 7.5 77 17 19 32.2 99.53     Rain Showers
09:00 11.5 7.9 79 18 29 32.2 99.57     Rain Showers
10:00 10.8 8.5 85 17 33 24.1 99.57     Rain Showers
11:00 11.1 8.9 86 17 24 32.2 99.58     Rain Showers
12:00 12.3 8.9 80 17 41 32.2 99.59     LegendNANA
13:00 12.1 9.7 85 17 28 24.1 99.61     Mostly Cloudy
14:00 12.7 9.4 80 18 23 32.2 99.56     LegendNANA
15:00 12.7 8.9 78 17 22 24.1 99.50     LegendNANA
16:00 12.4 8.2 76 18 18 32.2 99.45     Cloudy
17:00 11.3 8.6 84 17 21 8.1 99.41     Rain
18:00 10.8 9.3 90 17 24 16.1 99.44     Rain
19:00 9.9 8.2 89 19 22 24.1 99.46     Mostly Cloudy
20:00 9.3 7.6 89 16 13 24.1 99.59     LegendNANA
21:00 9.7 7.6 86 17 25 20.9 99.72     LegendNANA
22:00 9.5 6.7 83 18 25 24.1 99.81     Mainly Clear
23:00 9.8 6.4 79 17 25 20.9 99.89     LegendNANA

Notes on Data Quality.

Legend

  • E = Estimated
  • M = Missing
  • NA = Not Available
Date modified: